This demonstration page uses our WeatherBlox Daily Observations layout. Learn more.

Left ArrowRight Arrow

Hourly Observations for August 6, 2020

Temp ( °F °C ) Dew Point ( °F °C ) Humidity (%) Winds ( mph kmh ) Pressure ( in mb ) Visibility ( mi km ) Precip ( " mm )
12:15 am 00:15 Cloudy 72 22.2 68 19.8 86 86 SE 9 15 29.88 1012 10 16.0934 0 0
12:35 am 00:35 Partly Cloudy with Nearby Thunderstorms 72 22.2 68 19.8 86 86 SSE 6 9 29.88 1012 10 16.0934 0 0
12:55 am 00:55 Clear 73 22.5 67 19.7 84 84 S 8 13 29.88 1012 10 16.0934 0 0
1:15 am 01:15 Clear 73 22.5 68 19.8 85 85 S 12 19 29.87 1011 10 16.0934 0 0
1:35 am 01:35 Clear with Nearby Thunderstorms 72 22.3 67 19.7 85 85 S 9 15 29.85 1011 10 16.0934 0 0
1:55 am 01:55 Clear 72 22 67 19.7 87 87 Calm 29.84 1011 10 16.0934 0 0
2:15 am 02:15 Clear 71 21.5 67 19.7 90 90 S 6 9 29.85 1011 10 16.0934 0 0
2:35 am 02:35 Clear 69 20.6 67 19.3 92 92 ENE 5 7 29.85 1011 10 16.0934 0 0
2:55 am 02:55 Clear with Nearby Thunderstorms 69 20.5 67 19.5 94 94 ESE 6 9 29.85 1011 10 16.0934 0 0
3:15 am 03:15 Clear 68 20.1 67 19.2 95 95 Calm 29.86 1011 10 16.0934 0 0
3:35 am 03:35 Clear 68 20 67 19.2 95 95 SSE 3 6 29.85 1011 10 16.0934 0 0
3:55 am 03:55 Clear 68 19.8 66 19 95 95 SE 6 9 29.85 1011 10 16.0934 0 0
4:15 am 04:15 Clear 67 19.7 66 19 96 96 Calm 29.85 1011 10 16.0934 0 0
4:35 am 04:35 Clear 67 19.5 66 18.7 95 95 S 3 6 29.85 1011 10 16.0934 0 0
4:55 am 04:55 Clear 66 18.7 64 17.9 95 95 ESE 5 7 29.86 1011 10 16.0934 0 0
5:15 am 05:15 Clear 65 18.5 64 18 97 97 S 5 7 29.86 1011 10 16.0934 0 0
5:35 am 05:35 Clear 67 19.5 66 18.7 95 95 S 12 19 29.88 1012 10 16.0934 0 0
5:55 am 05:55 Clear 67 19.7 65 18.3 92 92 S 8 13 29.88 1012 10 16.0934 0 0
6:15 am 06:15 Clear 67 19.3 64 17.9 92 92 SSW 6 9 29.88 1012 10 16.0934 0 0
6:35 am 06:35 Clear 65 18.5 63 17.3 93 93 Calm 29.9 1013 10 16.0934 0 0
6:55 am 06:55 Sunny 66 18.8 64 17.5 92 92 Calm 29.91 1013 10 16.0934 0 0
7:15 am 07:15 Sunny 64 18 63 17 94 94 Calm 29.9 1013 10 16.0934 0 0
7:35 am 07:35 Sunny 66 18.7 64 17.7 94 94 Calm 29.9 1012 10 16.0934 0 0
7:55 am 07:55 Sunny 68 20 64 17.6 86 86 Calm 29.89 1012 10 16.0934 0 0
8:15 am 08:15 Sunny 69 20.8 64 18 84 84 Calm 29.88 1012 10 16.0934 0 0
8:35 am 08:35 Sunny 71 21.5 63 17.1 76 76 Calm 29.87 1012 10 16.0934 0 0
8:55 am 08:55 Sunny 71 21.7 63 17.3 76 76 Calm 29.89 1012 10 16.0934 0 0
9:15 am 09:15 Sunny 73 22.7 63 17.3 72 72 SSW 5 7 29.88 1012 10 16.0934 0 0
9:35 am 09:35 Sunny 74 23.3 65 18.1 73 73 S 7 11 29.88 1012 10 16.0934 0 0
9:55 am 09:55 Sunny 74 23.4 64 17.9 71 71 SSW 8 13 29.87 1011 10 16.0934 0 0
10:15 am 10:15 Sunny 76 24.4 65 18.1 68 68 S 8 13 29.87 1012 10 16.0934 0 0
10:35 am 10:35 Sunny 77 25 65 18.5 67 67 S 8 13 29.87 1011 10 16.0934 0 0
10:55 am 10:55 Sunny 78 25.5 66 18.8 67 67 SSE 8 13 29.86 1011 10 16.0934 0 0
11:15 am 11:15 Sunny 79 26.3 67 19.6 67 67 SSE 12 19 29.86 1011 10 16.0934 0 0
11:35 am 11:35 Sunny 79 26.3 67 19.6 67 67 SSE 9 15 29.86 1011 10 16.0934 0 0
11:55 am 11:55 Sunny 79 26.3 68 20 68 68 SSE 9 15 29.86 1011 10 16.0934 0 0
12:15 pm 12:15 Sunny 81 27.1 69 20.4 67 67 S 8 13 29.84 1010 10 16.0934 0 0
12:35 pm 12:35 Sunny 82 27.8 69 20.6 65 65 SSE 7 11 29.83 1010 10 16.0934 0 0
12:55 pm 12:55 Sunny 83 28.1 68 19.9 61 61 S 6 9 29.82 1010 10 16.0934 0 0
1:15 pm 13:15 Sunny 83 28.5 68 20 60 60 SSE 6 9 29.82 1010 10 16.0934 0 0
1:35 pm 13:35 Sunny 84 29.1 69 20.3 59 59 SSE 9 15 29.8 1009 10 16.0934 0 0
1:55 pm 13:55 Sunny 84 29.1 69 20.5 60 60 SSE 8 13 29.79 1009 10 16.0934 0 0
2:15 pm 14:15 Sunny 85 29.5 69 20.6 59 59 S 10 17 29.78 1009 10 16.0934 0 0
2:35 pm 14:35 Sunny 86 29.9 67 19.6 54 54 SSE 10 17 29.78 1008 10 16.0934 0 0
2:55 pm 14:55 Sunny 86 30.2 67 19.7 53 53 S 9 15 29.78 1008 10 16.0934 0 0
3:15 pm 15:15 Sunny 86 30.2 65 18.6 50 50 S 12 19 29.78 1008 10 16.0934 0 0
3:35 pm 15:35 Sunny 87 30.5 64 17.9 47 47 S 12 19 29.76 1008 10 16.0934 0 0
3:55 pm 15:55 Sunny 86 30.2 66 19 51 51 SSE 10 17 29.77 1008 10 16.0934 0 0
4:15 pm 16:15 Sunny 87 30.3 67 19.6 53 53 S 12 19 29.76 1008 10 16.0934 0 0
4:35 pm 16:35 Sunny 86 30.2 67 19.5 53 53 S 10 17 29.76 1008 10 16.0934 0 0
4:55 pm 16:55 Sunny 86 30.1 69 20.3 56 56 SSE 15 24 29.75 1007 10 16.0934 0 0
5:15 pm 17:15 Sunny 85 29.7 68 20 56 56 SSE 13 20 29.75 1007 10 16.0934 0 0
5:35 pm 17:35 Sunny 85 29.5 69 20.5 58 58 SSE 14 22 29.75 1008 10 16.0934 0 0
5:55 pm 17:55 Sunny 85 29.4 70 21 61 61 SSE 12 19 29.75 1008 10 16.0934 0 0
6:15 pm 18:15 Sunny 84 29 68 20.2 59 59 S 12 19 29.76 1008 10 16.0934 0 0
6:35 pm 18:35 Sunny 84 28.7 69 20.7 62 62 SSE 10 17 29.76 1008 10 16.0934 0 0
6:55 pm 18:55 Sunny 83 28.3 69 20.8 64 64 SSE 13 20 29.75 1007 10 16.0934 0 0
7:15 pm 19:15 Sunny 82 28 70 21.1 66 66 SSE 13 20 29.75 1008 10 16.0934 0 0
7:35 pm 19:35 Sunny 81 27.3 71 21.4 70 70 SSE 9 15 29.76 1008 10 16.0934 0 0
7:55 pm 19:55 Sunny 80 26.6 70 21 71 71 SE 9 15 29.76 1008 10 16.0934 0 0
8:15 pm 20:15 Sunny 78 25.8 70 21.1 75 75 SSE 8 13 29.78 1008 10 16.0934 0 0
8:35 pm 20:35 Sunny 77 25 70 21 79 79 SSE 5 7 29.8 1009 10 16.0934 0 0
8:55 pm 20:55 Clear 75 24.1 70 21.1 83 83 SE 7 11 29.8 1009 10 16.0934 0 0
9:15 pm 21:15 Clear 74 23.6 70 21.3 87 87 SE 7 11 29.82 1010 10 16.0934 0 0
9:35 pm 21:35 Clear 74 23.3 70 21.3 89 89 SE 7 11 29.82 1010 10 16.0934 0 0
9:55 pm 21:55 Clear 74 23.2 70 21.3 89 89 SE 8 13 29.82 1010 10 16.0934 0 0
10:15 pm 22:15 Clear 74 23.1 70 21.2 89 89 SE 7 11 29.82 1010 10 16.0934 0 0
10:35 pm 22:35 Clear 73 23 70 21.1 89 89 SE 7 11 29.82 1010 10 16.0934 0 0
10:55 pm 22:55 Clear with Nearby Thunderstorms 73 23 70 21.1 89 89 SE 8 13 29.81 1010 10 16.0934 0 0
11:15 pm 23:15 Clear 73 22.7 70 21 90 90 SE 8 13 29.82 1010 10 16.0934 0 0
11:35 pm 23:35 Clear 73 22.5 69 20.6 89 89 SSE 8 13 29.82 1010 10 16.0934 0 0
11:55 pm 23:55 Clear 72 22.2 69 20.5 90 90 SSE 8 13 29.83 1010 10 16.0934 0 0

Powered by AerisWeather